(514842) = 2008 DV17

Discovered at Mount Lemmon on 2008-02-26 by Mt. Lemmon Survey.

Orbit

Orbit type: Main Belt

Note: WebGL enabled browser required.

epoch2023-02-25.0
epoch JD2460000.5
perihelion date2019-02-07.97366
perihelion JD2458522.47366
argument of perihelion (°)112.47874
ascending node (°)150.58535
inclination (°)7.77360
eccentricity0.2611861
perihelion distance (AU)2.1538208
Tisserand w.r.t. Jupiter3.2
ΔV w.r.t. Earth (km/sec)9.6
semimajor axis (AU)2.9152412
mean anomaly (°)292.66735
mean daily motion (°/day)0.19801230
aphelion distance (AU)3.677
period (years)4.98
P-vector [x]-0.11658866
P-vector [y]-0.95369640
P-vector [z]-0.27725485
Q-vector [x]0.99095622
Q-vector [y]-0.09303133
Q-vector [z]-0.09670027
absolute magnitude17.13
phase slope0.15
uncertainty0
referenceMPEC 2023-F215
observations used113
oppositions12
arc length (days)7303
first opposition used2003
last opposition used2023
residual rms (arc-secs)0.78
perturbers coarse indicatorM-v
perturbers precise indicator003Ek
first observation date used2003-03-30.0
last observation date used2023-03-28.0
computer nameMPCLINUX
Minimum Orbit Intersection Distances (in AU)
for orbit epoch: 2460000.5, reference: E2023-FF8
Mercury1.69849
Venus1.43676
Earth1.15246
Mars0.71007
Jupiter1.50021
Saturn5.41891
Uranus15.2202
Neptune26.3471

Observations

114 total observations over interval: 2003 03 30.244420 – 2023 03 28.261521
These data are available for download (format description).

Date (UT) J2000 RA J2000 Dec Magn Location Ref
2003 03 30.244420 10 27 47.345 +12 47 03.01 21.68 V 645 – Apache Point-Sloan Digital Sky Survey MPS 855531
2003 03 30.247892 10 27 47.241 +12 47 04.07 22.43   645 – Apache Point-Sloan Digital Sky Survey MPS 855531
2004 08 22.14069 20 47 15.26 -14 55 18.3 20.4 V 691 – Steward Observatory, Kitt Peak-Spacewatch MPS 855531
2004 08 22.16768 20 47 14.30 -14 55 30.1 20.6 V 691 – Steward Observatory, Kitt Peak-Spacewatch MPS 855531
2004 08 22.19457 20 47 13.35 -14 55 41.4 20.6 V 691 – Steward Observatory, Kitt Peak-Spacewatch MPS 855531
2005 11 06.29235 03 05 49.23 +06 29 26.1 21.1 V G96 – Mt. Lemmon Survey MPS 855531
2005 11 06.29500 03 05 49.12 +06 29 25.5 21.1 V G96 – Mt. Lemmon Survey MPS 855531
2005 11 06.29764 03 05 48.98 +06 29 25.1 21.2 V G96 – Mt. Lemmon Survey MPS 855531
2005 11 06.30028 03 05 48.80 +06 29 23.9 21.6 V G96 – Mt. Lemmon Survey MPS 855531
2005 11 06.30579 03 05 48.55 +06 29 22.9 20.9 V G96 – Mt. Lemmon Survey MPS 855531
2005 11 06.31041 03 05 48.33 +06 29 22.2 21.4 V G96 – Mt. Lemmon Survey MPS 855531
2005 11 06.31502 03 05 48.08 +06 29 20.8 20.9 V G96 – Mt. Lemmon Survey MPS 855531
2005 11 06.31966 03 05 47.83 +06 29 19.9 21.1 V G96 – Mt. Lemmon Survey MPS 855531
2008 02 26.38544 10 56 51.72 +08 52 44.4 22.2 V G96 – Mt. Lemmon Survey MPS 240904
2008 02 26.39281 10 56 51.36 +08 52 47.6 21.5 V G96 – Mt. Lemmon Survey MPS 240904
2008 02 26.40007 10 56 51.03 +08 52 51.1 21.0 V G96 – Mt. Lemmon Survey MPS 240904
2008 02 26.40736 10 56 50.60 +08 52 53.9 20.6 V G96 – Mt. Lemmon Survey MPS 240904
2008 02 29.36964 10 54 30.92 +09 15 09.1 20.2 V G96 – Mt. Lemmon Survey MPS 240904
2008 02 29.37507 10 54 30.63 +09 15 11.8 21.1 V G96 – Mt. Lemmon Survey MPS 240905
2008 02 29.38113 10 54 30.34 +09 15 14.0 21.1 V G96 – Mt. Lemmon Survey MPS 240905
2008 02 29.38646 10 54 30.09 +09 15 16.2 20.6 V G96 – Mt. Lemmon Survey MPS 240905
2008 03 08.23097 10 48 12.13 +10 13 58.7 21.1 V G96 – Mt. Lemmon Survey MPS 252502
2008 03 08.23556 10 48 11.95 +10 14 00.5 21.3 V G96 – Mt. Lemmon Survey MPS 252503
2008 03 08.24016 10 48 11.66 +10 14 02.7 21.1 V G96 – Mt. Lemmon Survey MPS 252503
2008 03 08.24476 10 48 11.48 +10 14 04.7 21.6 V G96 – Mt. Lemmon Survey MPS 252503
2009 07 28.28958 21 16 41.98 -11 19 47.6 19.6 V 703 – Catalina Sky Survey MPS 855531
2009 07 28.29433 21 16 41.62 -11 19 48.4 19.9 V 703 – Catalina Sky Survey MPS 855531
2009 07 28.29913 21 16 41.37 -11 19 50.6 19.4 V 703 – Catalina Sky Survey MPS 855531
2009 07 28.30392 21 16 41.12 -11 19 52.5 20.0 V 703 – Catalina Sky Survey MPS 855531
2010 11 12.26334 03 05 42.54 +06 25 49.4 22.7 V G96 – Mt. Lemmon Survey MPS 855531
2010 11 12.27025 03 05 42.18 +06 25 47.7 21.6 V G96 – Mt. Lemmon Survey MPS 855531
2010 11 12.27707 03 05 41.82 +06 25 46.9 22.7 V G96 – Mt. Lemmon Survey MPS 855531
2010 11 12.28400 03 05 41.49 +06 25 45.3 21.7 V G96 – Mt. Lemmon Survey MPS 855531
2013 02 14.40131 11 12 52.976 +06 59 47.26 21.1 w F51 – Pan-STARRS 1, Haleakala MPS 846019
2013 02 14.43049 11 12 51.865 +06 59 59.12 21.1 w F51 – Pan-STARRS 1, Haleakala MPS 846019
2013 02 14.44524 11 12 51.297 +07 00 04.98 21.1 w F51 – Pan-STARRS 1, Haleakala MPS 846019
2013 03 02.21723 11 01 30.87 +08 55 42.3 20.7 V 691 – Steward Observatory, Kitt Peak-Spacewatch MPS 846019
2013 03 02.23494 11 01 30.02 +08 55 50.6 20.8 V 691 – Steward Observatory, Kitt Peak-Spacewatch MPS 846019
2013 03 02.25265 11 01 29.16 +08 55 59.0 20.9 V 691 – Steward Observatory, Kitt Peak-Spacewatch MPS 846019
2013 03 02.26795 11 01 28.45 +08 56 05.8 20.9 V G96 – Mt. Lemmon Survey MPS 855531
2013 03 02.27329 11 01 28.16 +08 56 08.3 20.4 V G96 – Mt. Lemmon Survey MPS 855531
2013 03 02.27869 11 01 27.91 +08 56 11.1 20.7 V G96 – Mt. Lemmon Survey MPS 855531
2013 03 02.28409 11 01 27.62 +08 56 13.7 20.7 V G96 – Mt. Lemmon Survey MPS 855531
2013 03 18.25654 10 48 49.60 +10 54 18.9 20.1 V G96 – Mt. Lemmon Survey MPS 855531
2013 03 18.26350 10 48 49.28 +10 54 21.7 20.3 V G96 – Mt. Lemmon Survey MPS 855531
2013 03 18.27049 10 48 48.96 +10 54 24.8 20.5 V G96 – Mt. Lemmon Survey MPS 855531
2013 03 18.27743 10 48 48.60 +10 54 27.6 20.6 V G96 – Mt. Lemmon Survey MPS 855531
2014 06 03.55795 21 39 04.875 -08 17 37.55 21.4 w F51 – Pan-STARRS 1, Haleakala MPS 855531
2014 06 03.57048 21 39 05.394 -08 17 35.43 21.6 w F51 – Pan-STARRS 1, Haleakala MPS 855531
2014 07 28.49708 21 39 08.440 -10 21 37.13 19.9 w F51 – Pan-STARRS 1, Haleakala MPS 846019
2014 07 28.50837 21 39 07.970 -10 21 41.87 19.9 w F51 – Pan-STARRS 1, Haleakala MPS 846019
2014 07 28.51965 21 39 07.492 -10 21 46.76 20.0 w F51 – Pan-STARRS 1, Haleakala MPS 846019
2014 07 28.53091 21 39 07.022 -10 21 51.62 20.0 w F51 – Pan-STARRS 1, Haleakala MPS 846019
2014 08 15.45295 21 26 02.963 -12 40 51.82 20.2 i F51 – Pan-STARRS 1, Haleakala MPS 846019
2014 08 15.46532 21 26 02.378 -12 40 57.80 20.0 i F51 – Pan-STARRS 1, Haleakala MPS 846019
2014 08 15.47767 21 26 01.793 -12 41 03.49 20.0 i F51 – Pan-STARRS 1, Haleakala MPS 846019
2014 08 15.49007 21 26 01.212 -12 41 09.55 19.9 i F51 – Pan-STARRS 1, Haleakala MPS 846019
2015 11 17.34517 03 09 26.497 +06 40 02.33 22.0 w F51 – Pan-STARRS 1, Haleakala MPS 855531
2015 11 17.35615 03 09 25.946 +06 40 00.21 21.7 w F51 – Pan-STARRS 1, Haleakala MPS 855531
2015 11 17.36719 03 09 25.403 +06 39 58.08 21.7 w F51 – Pan-STARRS 1, Haleakala MPS 855531
2018 03 18.30574 11 00 50.070 +10 09 18.99 21.2 w F51 – Pan-STARRS 1, Haleakala MPS 876099
2018 03 18.31882 11 00 49.415 +10 09 24.92 21.6 w F51 – Pan-STARRS 1, Haleakala MPS 876099
2018 03 18.33194 11 00 48.827 +10 09 30.11 21.3 w F51 – Pan-STARRS 1, Haleakala MPS 876099
2018 03 18.34514 11 00 48.193 +10 09 35.84 21.3 w F51 – Pan-STARRS 1, Haleakala MPS 876099
2018 03 18.38398 11 00 46.14 +10 09 51.4 21.4 G G96 – Mt. Lemmon Survey MPS 876099
2018 03 18.38915 11 00 45.85 +10 09 53.7 20.3 G G96 – Mt. Lemmon Survey MPS 876099
2018 03 18.39433 11 00 45.69 +10 09 54.6 21.3 G G96 – Mt. Lemmon Survey MPS 876099
2018 03 18.39950 11 00 45.42 +10 09 58.0 21.1 G G96 – Mt. Lemmon Survey MPS 876099
2018 03 19.34088 11 00 02.440 +10 16 41.16 21.5 w F51 – Pan-STARRS 1, Haleakala MPS 876099
2018 03 19.35320 11 00 01.839 +10 16 46.35 21.4 w F51 – Pan-STARRS 1, Haleakala MPS 876099
2018 03 19.36549 11 00 01.259 +10 16 51.46 21.2 w F51 – Pan-STARRS 1, Haleakala MPS 876099
2018 03 19.37786 11 00 00.672 +10 16 56.68 20.9 w F51 – Pan-STARRS 1, Haleakala MPS 876099
2019 07 07.55952 22 07 41.499 -07 33 35.95 20.6 w F51 – Pan-STARRS 1, Haleakala MPS 1012501
2019 07 07.57147 22 07 41.406 -07 33 38.29 20.7 w F51 – Pan-STARRS 1, Haleakala MPS 1012501
2019 07 07.58341 22 07 41.335 -07 33 40.27 20.6 w F51 – Pan-STARRS 1, Haleakala MPS 1012501
2019 08 22.38732 21 42 59.27 -12 32 38.0 19.9 G G96 – Mt. Lemmon Survey MPS 1023807
2019 08 22.39350 21 42 59.00 -12 32 40.7 20.0 G G96 – Mt. Lemmon Survey MPS 1023807
2019 08 22.39968 21 42 58.71 -12 32 43.8 19.9 G G96 – Mt. Lemmon Survey MPS 1023807
2019 08 22.40585 21 42 58.42 -12 32 46.5 19.9 G G96 – Mt. Lemmon Survey MPS 1023807
2019 08 22.41766 21 42 58.142 -12 32 51.44 19.6 i F52 – Pan-STARRS 2, Haleakala MPS 1023807
2019 08 22.42997 21 42 57.559 -12 32 57.29 19.8 i F52 – Pan-STARRS 2, Haleakala MPS 1023807
2019 08 22.44221 21 42 57.005 -12 33 03.11 19.5 i F52 – Pan-STARRS 2, Haleakala MPS 1023807
2019 08 22.45453 21 42 56.433 -12 33 08.85 19.5 i F52 – Pan-STARRS 2, Haleakala MPS 1023807
2019 08 28.41632 21 38 43.014 -13 19 09.35 20.2 w F51 – Pan-STARRS 1, Haleakala MPS 1031911
2019 08 28.42930 21 38 42.453 -13 19 15.16 20.2 w F51 – Pan-STARRS 1, Haleakala MPS 1031911
2019 08 28.44226 21 38 41.899 -13 19 20.89 20.2 w F51 – Pan-STARRS 1, Haleakala MPS 1031911
2019 08 28.45522 21 38 41.340 -13 19 26.76 20.0 w F51 – Pan-STARRS 1, Haleakala MPS 1031911
2019 09 06.19937 21 33 23.27 -14 20 24.1 20.2 G G96 – Mt. Lemmon Survey MPS 1031911
2019 09 06.20493 21 33 23.05 -14 20 25.9 19.9 G G96 – Mt. Lemmon Survey MPS 1031911
2019 09 06.21049 21 33 22.87 -14 20 28.3 20.1 G G96 – Mt. Lemmon Survey MPS 1031911
2019 09 06.21604 21 33 22.69 -14 20 30.6 20.5 G G96 – Mt. Lemmon Survey MPS 1031911
2019 10 27.22058 21 37 44.594 -16 17 53.82 21.8 w F51 – Pan-STARRS 1, Haleakala MPS 1074963
2019 10 27.23144 21 37 45.005 -16 17 52.84 21.9 w F51 – Pan-STARRS 1, Haleakala MPS 1074963
2019 10 27.24231 21 37 45.434 -16 17 51.74 21.6 w F51 – Pan-STARRS 1, Haleakala MPS 1074963
2019 10 27.25321 21 37 45.870 -16 17 50.82 21.6 w F51 – Pan-STARRS 1, Haleakala MPS 1074963
2023 02 26.693667 11 29 30.50 +06 43 12.0 21.1 R D29 – Purple Mountain Observatory, XuYi Station MPS 1762010
2023 02 26.707809 11 29 29.80 +06 43 19.3 20.5 R D29 – Purple Mountain Observatory, XuYi Station MPS 1762010
2023 02 26.721950 11 29 29.30 +06 43 24.2 20.3 R D29 – Purple Mountain Observatory, XuYi Station MPS 1762010
2023 02 28.251745 11 28 24.632 +06 55 08.00 20.79 G G96 – Mt. Lemmon Survey MPS 1809237
2023 02 28.257398 11 28 24.384 +06 55 10.38 20.76 G G96 – Mt. Lemmon Survey MPS 1809237
2023 02 28.263056 11 28 24.222 +06 55 12.83 20.89 G G96 – Mt. Lemmon Survey MPS 1809237
2023 02 28.268724 11 28 23.891 +06 55 16.07 22.21 G G96 – Mt. Lemmon Survey MPS 1809237
2023 03 13.288538 11 18 23.760 +08 37 37.92 20.61 G G96 – Mt. Lemmon Survey MPS 1835332
2023 03 13.293693 11 18 23.490 +08 37 40.44 20.87 G G96 – Mt. Lemmon Survey MPS 1835332
2023 03 13.298845 11 18 23.260 +08 37 42.64 20.55 G G96 – Mt. Lemmon Survey MPS 1835332
2023 03 13.304006 11 18 23.011 +08 37 45.34 20.40 G G96 – Mt. Lemmon Survey MPS 1835332
2023 03 26.311845 11 08 22.525 +10 12 55.15 20.84 w F51 – Pan-STARRS 1, Haleakala MPS 1855960
2023 03 26.323769 11 08 22.000 +10 13 00.11 20.93 w F51 – Pan-STARRS 1, Haleakala MPS 1855960
2023 03 26.335611 11 08 21.459 +10 13 04.87 20.93 w F51 – Pan-STARRS 1, Haleakala MPS 1855960
2023 03 26.347516 11 08 20.929 +10 13 09.57 20.86 w F51 – Pan-STARRS 1, Haleakala MPS 1855960
2023 03 28.244667 11 07 00.880 +10 25 28.49 21.00 G G96 – Mt. Lemmon Survey MPS 1855960
2023 03 28.250281 11 07 00.606 +10 25 30.65 21.89 G G96 – Mt. Lemmon Survey MPS 1855960
2023 03 28.255897 11 07 00.433 +10 25 32.23 20.73 G G96 – Mt. Lemmon Survey MPS 1855960
2023 03 28.261521 11 07 00.152 +10 25 35.08 20.96 G G96 – Mt. Lemmon Survey MPS 1855960